This is the latest recevied weather packets stored in our database for station/object CQ0XCR-11. If no packets are shown the sender has not sent any weather packets the latest 1 day(s).
| Time | Temp. | Humidity | Pressure | Rain* | Wind** | Luminosity | Snow |
|---|---|---|---|---|---|---|---|
| 1778016837 | -2.78° C | - | 6550.2 hPa | 0 mm | 0.45 m/s, 45° | - | - |
| 1778016589 | -2.78° C | - | 6550.2 hPa | 0 mm | 0 m/s | - | - |
| 1778016466 | -2.78° C | - | 6550.2 hPa | 0 mm | 0.45 m/s, 34° | - | - |
| 1778016341 | -2.78° C | - | 6550.2 hPa | 0 mm | 0.45 m/s, 349° | - | - |
| 1778016220 | -2.78° C | - | 6550.2 hPa | 0 mm | 0 m/s | - | - |
| 1778016094 | -2.78° C | - | 6550.2 hPa | 0.51 mm | 0.45 m/s, 45° | - | - |
| 1778015969 | -2.78° C | - | 6550.2 hPa | 0.51 mm | 0.45 m/s, 45° | - | - |
| 1778015845 | -2.78° C | - | 6550.2 hPa | 0.51 mm | 0.45 m/s, 41° | - | - |
| 1778015722 | -2.78° C | - | 6550.2 hPa | 0.51 mm | 0.45 m/s, 320° | - | - |
| 1778015597 | -2.78° C | - | 6550.2 hPa | 0.51 mm | 0.45 m/s, 315° | - | - |
| 1778015225 | -2.78° C | - | 6550.2 hPa | 0.51 mm | 0.45 m/s, 278° | - | - |
| 1778015102 | -2.78° C | - | 6550.2 hPa | 0.51 mm | 0.89 m/s, 286° | - | - |
| 1778014855 | -2.78° C | - | 6550.2 hPa | 0.51 mm | 0.45 m/s, 288° | - | - |
| 1778014729 | -2.78° C | - | 6550.2 hPa | 0.51 mm | 0.89 m/s, 285° | - | - |
| 1778014606 | -2.78° C | - | 6550.2 hPa | 0.51 mm | 0.45 m/s, 312° | - | - |
| 1778014481 | -2.78° C | - | 6550.2 hPa | 0.51 mm | 0.89 m/s, 301° | - | - |
| 1778014358 | -2.78° C | - | 6550.2 hPa | 0.51 mm | 1.34 m/s, 321° | - | - |
| 1778014233 | -2.78° C | - | 6550.2 hPa | 0.51 mm | 1.79 m/s, 306° | - | - |
| 1778014110 | -2.78° C | - | 6550.2 hPa | 0.51 mm | 1.79 m/s, 308° | - | - |
| 1778013985 | -2.78° C | - | 6550.2 hPa | 0.51 mm | 0.89 m/s, 304° | - | - |
| 1778013862 | -2.78° C | - | 6550.2 hPa | 0.51 mm | 1.34 m/s, 288° | - | - |
| 1778013737 | -2.78° C | - | 6550.2 hPa | 0.51 mm | 1.34 m/s, 294° | - | - |
| 1778013614 | -2.78° C | - | 6550.2 hPa | 0.51 mm | 1.34 m/s, 329° | - | - |
| 1778013366 | -2.78° C | - | 6550.2 hPa | 0.51 mm | 1.34 m/s, 331° | - | - |
| 1778013242 | -2.78° C | - | 6550.2 hPa | 0.51 mm | 1.79 m/s, 313° | - | - |
* Rain since midnight (hover to see other rain measurements)
** Current wind speed in m/s (hover to see current wind gust speed)